Location: Riverside Cemetery
(38.3047°N, 99.7773°W)
Time: 05:31:27
(UTC+00:00)

USA 238 DEB - Pass Details

Date: 19 September 2020
Orbit: 1006 x 1206 km, 63.4° (Epoch: 15 October)

Event Time Altitude Azimuth Distance (km) Brightness Sun altitude
Rises 02:44:10 0° 329° (NNW) 3,962 7.5 -24.3°
Reaches altitude 10° 02:46:52 10° 333° (NNW) 3,028 6.7 -24.7°
Maximum altitude 02:54:05 62° 53° (NE) 1,305 3.9 -26.0°
Enters shadow 02:55:27 54° 97° (E) 1,412 3.9 -26.3°
